Peachtree City, GA

2:03 PM EDT on August 22, 2017 (GMT -0400)
Peachtree City-Falcon

Weather History for KFFC - September, 2012

Change the Weather History Date:

Tuesday, September 11, 2012

  Actual Average Record
Temperature  
Mean Temperature 70 °F 74 °F  
Max Temperature 82 °F 85 °F 95 °F (2002)
Min Temperature 57 °F 63 °F 50 °F (1999)
Degree Days  
Heating Degree Days 0 0  
Month to date heating degree days 0  
Since 1 July heating degree days 0  
Cooling Degree Days 4 9  
Month to date cooling degree days 114  
Year to date cooling degree days 1494  
Growing Degree Days 20 (Base 50)    
Moisture  
Dew Point 57 °F    
Average Humidity 74    
Maximum Humidity 97    
Minimum Humidity 38    
Precipitation  
Precipitation 0.00 in 0.12 in 0.25 in (2001)
Month to date precipitation 1.39  
Year to date precipitation 36.12  
Sea Level Pressure  
Sea Level Pressure 30.21 in    
Wind  
Wind Speed 2 mph (SE)    
Max Wind Speed 10 mph    
Max Gust Speed 21 mph    
Visibility 9 miles    
Events      
T = Trace of Precipitation, MM = Missing Value Source: NWS Daily Summary

Daily Weather History Graph

Daily Weather History Graph

Search for Another Location

Airport or City:

Trip Planner

Search our weather history database for the weather conditions in past years. The results will help you decide how hot, cold, wet, or windy it might be!

Date:

Astronomy

Sep. 11, 2012 Rise Set
Actual Time 7:19 AM EDT 7:49 PM EDT
Civil Twilight 6:54 AM EDT 8:14 PM EDT
Nautical Twilight 6:25 AM EDT 8:43 PM EDT
Astronomical Twilight 5:55 AM EDT 9:13 PM EDT
Moon 2:47 AM EDT (9/11) 4:49 PM EDT (9/11)
Length of Visible Light 13h 19m
Length of Day
12h 30m
Waning Crescent, 21% of the Moon is Illuminated
Sep 11
Waning Crescent
Sep 15
New
Sep 22
First Quarter
Sep 29
Full
Oct 8
Last Quarter

Hourly Weather History & Observations

Time (EDT) Temp. Heat Index Dew Point Humidity Pressure Visibility Wind Dir Wind Speed Gust Speed Precip Events Conditions
12:53 AM 62.1 °F - 60.1 °F 93% 30.14 in 7.0 mi Calm Calm - N/A   Partly Cloudy
1:53 AM 60.1 °F - 57.9 °F 93% 30.13 in 7.0 mi Calm Calm - N/A   Clear
2:53 AM 59.0 °F - 57.9 °F 96% 30.13 in 7.0 mi Calm Calm - N/A   Scattered Clouds
3:53 AM 57.9 °F - 57.0 °F 97% 30.14 in 7.0 mi Calm Calm - N/A   Clear
4:53 AM 57.0 °F - 55.0 °F 93% 30.15 in 6.0 mi Calm Calm - N/A   Clear
5:53 AM 57.0 °F - 55.0 °F 93% 30.17 in 7.0 mi Calm Calm - N/A   Clear
6:53 AM 57.0 °F - 55.0 °F 93% 30.19 in 7.0 mi Calm Calm - N/A   Mostly Cloudy
7:53 AM 57.9 °F - 57.0 °F 97% 30.23 in 6.0 mi Calm Calm - N/A   Overcast
8:53 AM 62.1 °F - 59.0 °F 90% 30.25 in 8.0 mi Calm Calm - N/A   Overcast
9:53 AM 68.0 °F - 60.1 °F 76% 30.26 in 10.0 mi Calm Calm - N/A   Mostly Cloudy
10:53 AM 75.0 °F - 60.1 °F 60% 30.26 in 10.0 mi Calm Calm - N/A   Mostly Cloudy
11:53 AM 78.1 °F - 57.0 °F 48% 30.26 in 10.0 mi SE 8.1 mph - N/A   Partly Cloudy
12:53 PM 79.0 °F - 53.1 °F 40% 30.25 in 10.0 mi SE 4.6 mph 17.3 mph N/A   Clear
1:53 PM 80.1 °F 80.0 °F 54.0 °F 40% 30.24 in 10.0 mi SE 9.2 mph - N/A   Partly Cloudy
2:53 PM 82.0 °F 81.3 °F 54.0 °F 38% 30.22 in 10.0 mi ESE 5.8 mph 16.1 mph N/A   Clear
3:53 PM 81.0 °F 80.7 °F 55.0 °F 41% 30.20 in 10.0 mi SE 10.4 mph 20.7 mph N/A   Partly Cloudy
4:53 PM 79.0 °F - 55.0 °F 44% 30.20 in 10.0 mi ESE 10.4 mph - N/A   Clear
5:53 PM 80.1 °F 80.1 °F 55.0 °F 42% 30.19 in 10.0 mi ESE 10.4 mph 16.1 mph N/A   Clear
7:53 PM 69.1 °F - 61.0 °F 75% 30.21 in 10.0 mi Calm Calm - N/A   Clear
8:53 PM 64.9 °F - 60.1 °F 84% 30.22 in 10.0 mi Calm Calm - N/A   Clear
9:53 PM 63.0 °F - 59.0 °F 87% 30.24 in 10.0 mi Calm Calm - N/A   Clear
10:53 PM 62.1 °F - 59.0 °F 90% 30.26 in 10.0 mi Calm Calm - N/A   Clear
11:53 PM 60.1 °F - 57.9 °F 93% 30.27 in 8.0 mi Calm Calm - N/A   Clear